Location: Unspecified
(0.0000°N, 0.0000°E)
Time: 18:59:25
(UTC+00:00)

Explorer 7 - Pass Details

Date: 22 November 2019
Orbit: 485 x 680 km, 50.3° (Epoch: 08 December)

Event Time Altitude Azimuth Distance (km) Brightness Sun altitude
Rises 07:49:50 0° 320° (NW) 2,554 9.7 28.9°
Reaches altitude 10° 07:52:01 10° 319° (NW) 1,663 8.9 29.4°
Maximum altitude 07:55:44 74° 234° (SW) 503 7.0 30.2°
Drops below altitude 10° 07:59:28 10° 148° (SSE) 1,664 10.2 31.1°
Sets 08:01:39 0° 146° (SE) 2,556 11.0 31.6°
